Orbcomm A4

operational
NORAD ID: 25112 Int'l Des: 1997-084 Owner: ORBC Country: US Constellation: orbcomm
LEOCIRCULAR

关于 Orbcomm A4

正在加载描述...

实时位置

正在加载3D地球...

即将过境

高度历史

Altitude vs Time

uPlot chart will show altitude changes over time

两行轨道根数

1 25112U 97084A 26071.24868244 .00001777 00000-0 52329-3 0 9999
2 25112 45.0121 159.9186 0007227 186.1049 173.9716 14.46992778480184
Epoch: Mar 12, 2026 • Age: 31 hours

当前状态

高度 740.0 km
速度 7.49 km/s
星下点 19.87°N, 99.29°W
发射日期 Dec 23, 1997
运行时间 28.2 years
类型 other

技术详情

分类 Payload
质量 42.00 kg
干质量 42.00 kg
总质量 42.00 kg
长度 0.20 m
直径 1.00 m
跨度 4.30 m
形状 Cyl + 2 Pan + Ant
制造商 OSCG
平台类型 Microstar
阶段状态 Unknown Transfer Status
所有者/国家 ORBC/US

大型星座

Loading constellations...